• MPC Preparation (Info)

  • MPEC 2016-N146: 2014 GP53

    The following Minor Planet Electronic Circular may be linked-to from your own Web pages, but must not otherwise be redistributed electronically.

    A form allowing access to any MPEC is at the bottom of this page.


    Read MPEC 2016-N145 Read MPEC 2016-N147


    M.P.E.C. 2016-N146                               Issued 2016 July 15, 20:20 UT
    
         The Minor Planet Electronic Circulars contain information on unusual
             minor planets and routine data on comets.  They are published
        on behalf of Division F of the International Astronomical Union by the
              Minor Planet Center, Smithsonian Astrophysical Observatory,
                              Cambridge, MA 02138, U.S.A.
    
                 Prepared using the Tamkin Foundation Computer Network
    
                                  MPC@CFA.HARVARD.EDU
                URL https://www.minorplanetcenter.net/    ISSN 1523-6714
    
                                       2014 GP53
    
    Observations:
         K14G53P  C2012 03 29.45859 13 48 45.243+04 45 40.60         22.0 wLEN146F51
         K14G53P  C2012 03 29.47294 13 48 45.128+04 45 41.49         22.0 wLEN146F51
         K14G53P  C2012 03 29.48730 13 48 45.023+04 45 42.29         22.0 wLEN146F51
         K14G53P  C2012 03 29.50183 13 48 44.899+04 45 43.23         22.1 wLEN146F51
         K14G53P* C2014 04 05.43280 14 18 50.436+01 37 41.30         22.0 wLEN146F51
         K14G53P  C2014 04 05.44505 14 18 50.343+01 37 41.83         21.9 wLEN146F51
         K14G53P  C2014 04 05.45730 14 18 50.255+01 37 42.55         22.3 wLEN146F51
         K14G53P  C2014 04 05.46956 14 18 50.158+01 37 43.01         22.1 wLEN146F51
         K14G53P  C2014 05 25.38369 14 12 12.601+02 06 51.31         22.1 wLEN146F51
         K14G53P  C2014 05 25.39673 14 12 12.508+02 06 51.47         22.3 wLEN146F51
         K14G53P  C2014 05 25.40975 14 12 12.421+02 06 51.58         22.0 wLEN146F51
         K14G53P  C2014 05 25.42286 14 12 12.326+02 06 51.66         22.2 wLEN146F51
         K14G53P  C2014 06 22.33381 14 09 43.523+02 04 34.13         22.2 wLEN146F51
         K14G53P  C2014 06 22.34667 14 09 43.504+02 04 33.46         22.3 wLEN146F51
         K14G53P  C2014 06 22.35955 14 09 43.432+02 04 33.47         22.1 wLEN146F51
         K14G53P  C2014 06 22.37245 14 09 43.417+02 04 33.59         22.1 wLEN146F51
         K14G53P  C2014 07 02.28276 14 09 17.067+02 00 06.86         22.1 wLEN146F51
         K14G53P  C2014 07 02.29563 14 09 17.025+02 00 06.64         22.3 wLEN146F51
         K14G53P  C2014 07 02.30845 14 09 17.006+02 00 06.57         22.5 wLEN146F51
         K14G53P  C2015 03 20.55318 14 35 53.085-00 13 12.47         22.0 wLEN146F51
         K14G53P  C2015 03 20.56629 14 35 53.029-00 13 11.67         22.2 wLEN146F51
         K14G53P  C2015 03 20.57941 14 35 52.943-00 13 11.04         22.1 wLEN146F51
         K14G53P  C2015 03 22.50535 14 35 42.069-00 11 29.84         22.3 wLEN146F51
         K14G53P  C2015 03 22.51898 14 35 41.992-00 11 29.03         22.4 wLEN146F51
         K14G53P  C2015 03 22.53269 14 35 41.909-00 11 28.49         22.3 wLEN146F51
         K14G53P  C2015 03 22.54644 14 35 41.804-00 11 27.78         22.3 wLEN146F51
    
    Observer details:
    F51 Pan-STARRS 1, Haleakala.  Observers B. Gibson, T. Goggia, N. Primak,
        A. Schultz, M. Willman.  Measurers K. Chambers, S. Chastel, Y.-T. Chen,
        L. Denneau, H. Flewelling, M. Holman, M. Huber, R. Jedicke, M. Lackner,
        E. Lilly, H.-W. Lin, E. Magnier, M. Micheli, M. Payne, P. Veres,
        R. Wainscoat, C. Waters, R. Weryk.  1.8-m Ritchey-Chretien + CCD.
    
    Orbital elements:
    2014 GP53
    Epoch 2016 July 31.0 TT = JDT 2457600.5                 MPC
    M  13.78666              (2000.0)            P               Q
    n   0.00708876     Peri.   89.35288     -0.91827973     +0.32051189
    a  26.8383543      Node   109.32114     -0.38238638     -0.87018271
    e   0.2064232      Incl.   14.26024     +0.10267913     -0.37423814
    P 139.04           H    8.6           G   0.15           U   2
    Residuals in seconds of arc
    120329 F51  0.0   0.1-    140525 F51  0.1-  0.1-    140702 F51  0.1+  0.3+
    120329 F51  0.0   0.0     140525 F51  0.0   0.1-    150320 F51  0.1-  0.1-
    120329 F51  0.1+  0.0     140525 F51  0.0   0.2-    150320 F51  0.2+  0.0
    120329 F51  0.1-  0.1+    140622 F51  0.3-  0.3+    150320 F51  0.0   0.1-
    140405 F51  0.0   0.0     140622 F51  0.1+  0.1-    150322 F51  0.0   0.0
    140405 F51  0.0   0.1-    140622 F51  0.2-  0.2+    150322 F51  0.1+  0.1+
    140405 F51  0.1+  0.0     140622 F51  0.2+  0.6+    150322 F51  0.0   0.1-
    140405 F51  0.0   0.2-    140702 F51  0.3+  0.2-    150322 F51  0.3-  0.1-
    140525 F51  0.1-  0.1-    140702 F51  0.0   0.0
    
    Ephemeris:
    2014 GP53                a,e,i = 26.84, 0.21, 14                 q = 21.298
    Date    TT    R. A. (2000) Decl.     Delta      r     Elong.  Phase     V
    2016 06 15    14 40 19.3 -01 03 47  20.8403 21.5375   132.3     2.0    22.1
    ...
    2016 06 30    14 39 11.6 -01 07 21  21.0386 21.5412   118.4     2.4    22.1
    ...
    2016 07 08    14 38 49.1 -01 10 52  21.1578 21.5432   111.0     2.5    22.2
    ...
    2016 07 14    14 38 39.1 -01 14 12  21.2517 21.5447   105.4     2.6    22.2
    2016 07 15    14 38 38.0 -01 14 49  21.2677 21.5450   104.5     2.6    22.2
    2016 07 16    14 38 37.0 -01 15 27  21.2837 21.5452   103.6     2.6    22.2
    ...
    2016 07 22    14 38 35.0 -01 19 33  21.3810 21.5467    98.1     2.7    22.2
    ...
    2016 07 30    14 38 41.9 -01 25 49  21.5128 21.5488    90.7     2.7    22.2
    ...
    2016 08 14    14 39 24.3 -01 39 48  21.7590 21.5526    76.9     2.6    22.2
    
    A. U. Tomatic                (C) Copyright 2016 MPC           M.P.E.C. 2016-N146
    

    Read MPEC 2016-N145 Read MPEC 2016-N147


    MPEC number:

    Enter an MPEC number in one of the following forms:

    • 1997-B01 (the full form)
    • J97B01 (the packed version of the full form)
    • B01 (the abbreviated form)